Retour au catalogue

SZ-20 MODULE

ActifScienceVLEO
NORAD 67481·PAYLOAD·🇨🇳 China

Lancé Apr 24, 2025 depuis Jiuquan Satellite Launch Center

Loading…

Prochains Passages (prochaines 24 heures)

TLE

FraisSource: Space-Track

Époque: Sep 13, 2026, 23:58 UTC

1 67481U 25082C   26256.99890277  .00030178  00000-0  20981-3 0  9997
2 67481  41.4749 127.3898 0015564 285.9867  73.9262 15.73556318307206

Suivez SZ-20 MODULE en temps réel avec AllMySat

Download on the App Store